Theta_e
339 337 336 336 335 335 336 335 334 334 334 332 327 320 314 312 313 313 315 319 322 324 327 329 331 333 334 334 332 328 324 322 324 327 329 331 332 334 336 336 337 338 337 338 337 337 336 336 336 335 335 335 334 335 334 333 332 332 332 331 329 327 326 325 324 318 309 309 318 321 318 313 307 307 310 317 319 315 316 313 312 319 322 316 313
338 336 335 334 335 335 335 335 334 334 334 332 328 321 314 312 312 313 315 319 322 325 327 330 332 334 335 336 336 334 332 330 330 331 333 335 336 336 337 337 337 337 337 337 337 337 336 335 335 334 334 334 333 332 331 331 331 330 330 326 322 319 316 313 311 309 308 307 309 310 318 317 306 308 313 317 320 318 316 312 314 319 321 318 312
335 333 333 333 333 334 335 335 334 334 333 332 329 322 315 311 312 314 316 319 322 324 327 329 331 334 335 335 336 335 335 335 335 335 336 336 336 336 337 337 338 337 337 336 336 336 335 335 334 334 333 331 329 328 328 329 330 330 328 323 319 316 313 311 308 307 307 306 309 311 316 315 306 307 310 312 315 316 316 315 315 315 316 314 312
335 330 330 331 332 333 335 335 334 334 333 332 329 322 315 311 312 314 315 319 322 324 327 329 331 334 335 335 335 335 335 335 336 336 336 336 336 337 337 338 338 337 337 337 336 335 335 334 334 334 332 330 329 329 328 327 328 331 330 323 318 316 314 312 309 308 307 308 313 316 315 313 312 313 310 312 315 315 317 318 316 312 311 312 312
336 330 329 329 331 332 334 334 334 334 333 332 329 322 315 312 311 313 315 318 321 323 327 330 332 334 335 335 334 334 334 334 335 335 336 336 337 337 338 338 338 337 337 336 336 336 335 334 334 333 332 330 329 328 328 327 329 330 331 326 322 322 324 318 311 311 310 311 316 317 319 320 323 324 321 319 316 313 314 314 313 311 311 311 311
336 331 329 328 329 331 333 334 334 334 332 331 328 322 316 313 311 313 314 317 320 322 326 330 332 334 335 335 335 334 334 334 334 335 336 336 337 337 337 338 338 337 337 336 336 335 334 332 332 333 332 330 328 326 326 327 330 331 331 330 327 327 332 328 315 312 312 314 318 317 319 320 321 321 319 317 314 311 312 311 310 311 312 312 312
337 333 330 328 329 331 333 334 334 333 332 331 328 323 318 314 311 312 314 316 319 321 325 329 332 333 334 334 334 334 334 334 334 335 336 336 336 337 337 338 338 337 337 337 336 335 333 330 329 330 331 330 327 326 326 327 329 330 331 330 328 325 329 329 316 312 313 314 316 313 314 314 314 315 314 312 312 312 311 312 312 312 312 313 313
337 334 331 329 329 331 333 334 334 333 333 332 329 325 320 315 311 311 313 315 318 320 323 327 330 331 332 333 333 333 334 334 335 335 335 336 335 336 337 337 336 336 335 334 334 333 332 329 324 323 325 326 326 327 328 328 328 328 328 326 324 322 323 322 315 313 312 313 314 311 311 312 313 316 316 312 312 313 312 313 313 313 314 313 313
337 334 331 330 330 331 333 334 334 334 333 331 329 326 320 316 311 311 312 313 316 319 321 324 327 329 330 331 332 333 334 335 335 335 335 335 334 334 334 333 331 329 328 327 327 325 326 326 318 313 315 319 325 328 329 328 328 326 325 321 319 320 321 320 316 313 311 312 313 312 311 311 311 312 313 312 312 313 313 313 313 313 313 313 313
336 333 331 330 330 331 333 334 334 334 332 331 330 327 322 317 312 310 311 313 314 317 319 321 323 326 328 330 331 333 335 335 335 335 334 333 332 331 330 328 326 324 322 319 316 315 317 319 312 308 309 313 323 328 328 328 328 326 322 320 319 320 321 319 316 312 310 311 313 312 311 310 311 311 311 311 312 312 312 314 315 315 315 318 318
334 332 331 330 330 332 333 334 334 333 332 331 330 328 323 318 313 311 311 312 313 315 317 318 320 322 325 327 330 333 335 335 335 334 333 332 330 329 327 325 324 322 318 313 310 310 311 311 308 308 307 311 323 328 329 329 328 327 322 319 319 319 319 318 316 313 311 311 312 312 311 311 311 311 311 312 312 313 313 314 316 317 317 320 319
333 332 331 330 330 332 333 333 333 332 332 331 331 328 323 318 313 310 311 312 312 313 314 316 319 320 321 323 326 330 333 333 333 332 331 331 330 328 325 323 321 317 312 309 308 308 308 308 308 308 308 314 324 328 329 329 329 327 322 319 319 318 318 317 315 313 312 312 312 312 311 311 311 311 311 312 313 313 313 313 315 315 314 315 314
333 331 330 328 329 332 332 333 333 332 332 331 330 327 322 317 313 310 311 312 312 312 313 315 316 317 318 319 321 324 327 329 328 327 327 328 328 327 323 320 317 313 309 308 308 308 308 308 308 307 311 318 325 328 329 329 328 327 323 319 319 319 319 318 316 313 312 312 311 312 311 312 311 311 311 312 313 312 313 313 313 313 311 312 311
333 331 329 327 329 331 332 332 332 332 331 330 328 324 320 316 311 310 312 312 312 313 313 314 314 315 316 317 318 320 321 322 323 322 322 322 323 322 319 318 315 311 308 309 308 308 308 308 308 308 314 322 326 328 328 328 328 327 324 321 321 321 320 318 316 313 312 311 311 311 311 312 312 312 312 312 312 312 313 312 313 313 312 312 311
333 330 327 327 329 331 332 332 331 330 329 327 324 321 318 314 310 310 311 312 313 313 313 313 313 314 315 315 317 317 319 320 320 320 319 318 319 318 316 315 313 310 308 308 308 308 308 308 308 309 317 324 327 328 328 329 329 328 326 322 322 322 320 317 315 315 313 311 311 311 311 312 312 311 312 312 312 312 312 312 313 313 312 312 311
332 328 324 325 328 329 330 329 327 326 324 322 320 318 316 312 310 310 311 312 313 313 313 314 313 313 314 315 316 316 318 319 319 319 319 318 317 315 314 313 311 309 309 308 308 309 308 309 309 311 319 326 328 329 330 330 329 328 326 323 322 322 319 318 317 316 314 312 312 312 312 312 312 312 312 312 312 312 313 312 313 312 312 312 310
329 323 321 321 323 324 323 322 321 320 319 318 317 316 313 311 310 310 310 311 312 313 313 314 314 313 313 314 315 316 318 319 320 320 320 320 318 315 312 312 310 309 309 309 308 308 309 309 309 313 320 326 328 329 330 330 328 327 326 324 323 322 320 319 319 317 315 314 313 312 312 312 312 313 313 312 312 312 312 312 312 312 312 311 310
324 320 318 318 318 319 318 317 317 316 316 315 315 313 312 311 310 310 310 310 311 312 313 313 314 313 313 313 314 316 319 320 321 321 320 320 319 315 312 311 310 310 309 309 309 308 309 309 310 314 320 326 328 329 330 330 328 327 326 325 324 323 322 320 318 317 316 315 313 312 312 312 312 312 313 312 312 312 312 312 312 312 311 310 309
320 317 317 316 316 316 315 315 314 314 314 313 313 313 312 311 310 310 310 310 311 311 312 313 313 314 313 313 313 315 317 319 321 321 321 320 319 316 313 312 312 311 310 309 309 309 309 309 310 315 320 325 327 329 330 330 329 328 328 327 326 325 324 321 319 318 317 315 314 312 311 311 311 311 312 312 312 312 312 312 312 312 311 310 309
318 317 316 315 315 315 314 314 314 314 313 313 313 313 312 311 310 310 310 310 310 311 312 311 313 314 314 313 313 313 314 316 318 319 320 320 319 318 315 314 314 313 311 310 309 309 309 309 310 314 320 324 327 329 330 330 329 329 328 327 327 327 326 323 322 321 318 317 315 312 311 310 310 310 311 312 312 312 312 313 312 312 311 309 309
317 317 315 315 316 316 316 316 315 314 314 314 314 314 313 312 311 310 310 310 310 311 311 312 313 313 313 313 312 312 313 314 316 318 319 320 320 320 318 316 316 315 314 313 311 310 309 309 310 313 319 323 326 328 330 330 329 329 328 328 329 328 327 326 326 323 320 319 317 313 310 310 310 310 311 311 312 312 313 313 312 311 310 309 309
317 317 316 317 318 319 319 318 317 316 315 314 314 314 314 313 312 312 311 311 311 311 311 313 314 313 313 313 313 313 314 313 314 315 316 317 318 319 320 319 318 317 317 316 315 312 310 309 309 312 317 323 326 328 331 330 329 330 328 328 329 327 327 328 328 326 323 321 320 316 313 311 310 310 311 312 313 313 313 313 312 311 310 309 309
318 318 318 319 321 321 321 320 320 319 318 316 315 314 313 314 313 313 313 312 312 312 312 313 313 314 314 315 316 318 320 320 319 318 318 317 316 317 319 320 320 319 319 319 319 317 314 311 309 310 315 321 326 329 331 331 330 331 330 329 328 327 328 328 327 327 325 324 323 321 318 314 311 311 312 312 313 314 315 314 312 311 310 309 309
320 319 320 321 322 322 323 322 322 322 322 320 317 314 313 313 313 313 313 313 313 313 313 313 313 314 316 318 320 324 327 328 328 327 326 324 321 318 317 318 319 320 320 319 320 320 319 316 312 309 312 319 325 329 331 332 331 330 330 330 329 328 329 327 326 326 326 327 326 324 322 319 315 313 313 314 314 315 316 314 312 311 310 309 309
323 322 322 323 323 323 324 324 324 325 326 324 321 318 316 316 316 315 315 315 315 315 314 313 314 316 318 320 323 327 330 330 329 330 330 330 330 328 324 320 319 319 320 320 320 320 321 320 318 313 310 315 323 328 330 332 331 330 331 331 331 330 329 327 326 326 327 329 328 326 325 322 318 316 316 317 316 316 316 313 311 311 310 310 310
327 325 325 326 325 325 325 325 325 326 327 325 323 322 321 321 322 321 321 320 320 320 317 316 318 319 321 324 327 329 330 329 329 330 331 331 332 332 330 328 325 321 319 319 319 320 321 321 321 318 312 312 320 326 328 330 330 330 330 330 331 331 330 330 330 328 328 330 329 329 328 324 320 319 319 319 319 317 315 312 311 311 310 310 312
331 329 329 330 329 329 329 327 327 327 327 325 324 325 325 325 326 326 326 325 324 323 321 320 321 324 327 329 331 330 330 329 329 330 331 331 331 331 331 331 331 329 324 319 318 319 320 321 321 321 318 314 317 323 327 330 328 327 327 327 330 332 331 332 332 331 330 330 330 330 330 327 323 322 322 322 321 319 315 312 311 311 311 311 313
336 334 334 334 334 334 334 332 332 331 329 327 326 326 327 327 328 328 328 328 328 326 325 327 328 329 331 332 332 332 331 330 331 331 331 332 332 332 331 331 331 332 331 325 319 318 318 320 320 322 321 319 319 321 323 324 324 326 328 328 330 331 331 332 332 331 331 331 331 331 331 330 327 325 325 324 322 319 313 311 311 311 312 313 314
339 338 338 338 337 337 338 336 336 335 334 332 330 328 328 330 331 331 331 331 332 331 331 332 333 333 333 333 332 333 333 333 333 333 332 332 333 333 333 333 332 332 333 331 326 320 317 318 320 320 322 323 324 324 322 320 323 329 331 331 330 330 331 331 331 331 331 331 331 331 331 330 329 327 326 325 322 318 312 311 311 311 312 314 316
340 340 340 339 339 338 338 338 337 337 336 336 334 332 332 333 334 334 334 334 334 334 334 334 334 334 334 333 332 332 333 334 333 333 332 332 333 333 333 333 333 333 333 333 332 328 320 317 318 319 321 322 324 327 327 326 328 332 333 332 331 331 331 331 331 332 331 331 331 331 331 330 330 327 326 326 321 315 312 310 311 312 313 315 317
341 341 340 339 339 338 338 338 337 337 337 337 336 335 334 335 335 335 335 336 335 335 334 335 334 334 334 334 333 333 333 332 332 332 332 331 331 331 332 331 332 333 333 332 333 332 326 321 320 321 321 321 322 325 327 329 331 334 335 334 332 331 331 331 332 332 331 331 331 331 331 330 330 328 327 327 320 313 312 310 311 313 314 315 318
341 340 340 339 338 337 337 337 337 337 337 336 336 336 335 335 335 335 335 335 335 335 335 335 334 334 333 333 333 333 333 332 331 331 331 330 330 330 330 330 331 331 332 332 332 333 331 328 326 325 325 324 325 325 326 327 329 332 334 334 334 333 332 332 332 332 332 331 331 331 331 330 330 329 328 328 321 313 312 311 312 314 315 317 320
341 340 339 339 338 337 336 336 336 336 336 336 336 335 335 335 335 335 335 334 334 334 334 333 332 332 332 332 332 331 331 331 330 330 330 330 330 330 330 330 331 330 331 331 331 332 332 332 330 329 329 328 327 327 328 327 327 329 332 333 333 333 332 332 332 332 331 331 331 331 331 331 331 330 329 329 324 316 314 313 313 314 317 319 322
340 339 339 338 337 337 336 336 335 335 335 335 334 334 334 334 335 335 333 331 331 331 332 332 331 331 331 331 331 331 331 331 331 331 331 330 330 329 330 330 330 330 329 330 330 330 330 331 331 330 330 329 329 328 328 328 328 328 329 330 331 331 332 332 331 331 331 331 331 330 331 331 331 331 329 329 327 321 316 315 314 315 318 321 324
339 338 338 337 337 336 335 335 334 334 334 334 333 333 333 333 333 333 331 330 331 331 331 331 331 331 330 331 331 331 331 332 332 332 331 330 330 330 330 330 330 329 328 328 328 328 328 329 329 330 329 329 329 329 329 329 329 328 328 328 329 329 330 331 331 331 331 331 331 330 330 330 330 330 330 330 329 325 320 316 315 317 319 323 325
338 338 337 336 336 336 336 335 334 334 334 334 333 332 332 332 331 331 332 333 334 333 333 332 331 332 331 330 330 330 330 331 332 332 332 331 331 331 331 331 331 330 329 328 327 327 328 328 328 329 329 329 329 329 329 330 330 330 329 329 329 329 330 331 331 331 330 330 331 331 330 329 330 331 331 330 330 328 325 320 317 317 320 324 326
338 338 337 336 336 336 336 336 335 335 334 334 333 333 333 332 332 332 333 335 334 334 333 332 332 332 331 330 330 330 329 331 332 333 333 333 333 332 332 332 331 330 330 329 329 328 328 328 328 328 328 329 329 328 328 329 330 331 330 330 330 330 331 331 331 331 330 330 330 330 329 327 329 330 330 330 330 329 327 324 321 318 319 323 326
338 337 337 336 337 337 336 336 336 335 334 334 334 334 333 333 333 333 333 334 334 334 334 333 333 333 331 330 330 329 330 330 331 333 333 333 333 333 332 331 330 330 330 331 330 330 329 329 329 329 329 329 329 329 328 328 330 330 329 330 331 330 331 331 331 331 331 330 330 330 330 328 328 329 330 330 329 329 329 327 324 322 322 323 325
338 338 337 337 337 337 337 337 336 335 335 334 334 334 334 334 334 334 334 334 334 334 334 334 334 333 332 330 330 330 330 330 331 332 333 333 333 333 332 331 331 331 331 331 331 330 330 329 329 329 330 330 330 329 328 328 328 328 327 328 330 331 331 331 331 332 332 331 330 329 330 330 329 328 329 329 329 329 329 328 326 326 325 325 325
338 338 338 337 337 338 337 337 336 336 336 336 336 336 335 335 336 336 335 335 335 335 335 335 334 333 332 332 331 331 331 332 333 333 333 332 332 332 331 330 332 332 331 331 331 330 331 330 330 330 330 330 330 330 330 329 328 328 328 328 328 330 330 331 331 331 332 331 331 330 330 331 330 329 330 330 329 329 329 329 327 328 328 327 326
338 337 337 337 337 338 337 336 336 336 336 336 337 336 336 336 337 337 336 336 336 335 335 335 334 334 333 333 332 332 332 333 333 333 332 332 331 331 331 331 332 332 330 330 329 329 330 331 332 332 331 331 331 331 331 331 331 330 330 329 329 330 330 330 330 330 331 331 331 331 331 331 330 329 330 330 329 329 329 329 328 328 329 328 326
338 337 337 337 338 338 337 337 336 336 336 336 336 336 336 336 336 336 336 336 335 335 335 334 334 334 334 333 333 332 332 332 332 332 332 331 330 330 330 331 332 332 331 331 328 327 329 330 331 331 331 332 331 331 332 332 332 332 331 331 330 330 330 330 330 329 329 330 330 330 331 331 331 330 329 330 329 328 329 330 329 329 329 328 327
338 338 337 337 337 337 337 336 336 336 336 336 336 336 336 335 336 335 336 335 335 335 334 334 333 333 333 333 333 332 332 332 332 332 331 330 329 329 330 331 331 332 332 332 330 329 330 330 330 330 331 332 332 331 331 332 332 332 332 332 331 330 330 330 329 329 329 329 329 329 330 330 331 331 330 330 330 329 329 330 330 330 329 328 327
338 337 337 336 336 336 335 335 335 335 336 336 336 336 335 335 335 335 335 335 335 335 335 334 334 334 334 333 333 333 333 332 332 332 331 331 330 330 330 330 331 332 332 332 332 331 331 331 331 332 332 332 331 330 330 331 332 332 332 332 332 331 331 330 330 329 329 329 329 329 329 330 331 331 331 331 330 329 328 329 330 330 329 329 328
337 337 336 336 336 336 335 335 334 334 335 335 334 334 334 334 333 333 334 334 334 334 335 334 334 334 334 334 333 333 333 332 332 331 331 330 330 330 331 331 331 332 333 332 332 331 331 332 332 333 332 332 331 331 331 331 331 332 332 331 331 331 331 331 330 330 330 330 329 329 329 329 330 331 331 331 330 329 329 329 329 330 330 329 328
337 336 336 336 335 335 335 335 334 334 334 333 332 333 333 333 332 332 332 333 333 333 333 333 332 333 333 333 333 333 332 332 332 331 331 330 330 330 330 331 331 332 332 331 331 331 331 332 332 332 332 332 332 332 332 331 331 332 331 331 331 331 331 331 331 330 330 330 330 329 329 329 329 330 331 331 330 329 328 329 329 330 330 329 329
334 334 335 334 334 335 334 334 333 333 333 332 332 333 334 334 333 332 332 332 333 333 333 332 332 333 333 332 332 332 332 331 331 331 331 331 330 331 331 330 331 331 331 331 331 331 331 331 332 332 332 332 332 332 331 331 331 331 331 331 331 331 331 331 330 330 330 330 330 330 330 329 329 329 330 331 330 329 328 328 329 330 330 330 329
334 333 334 334 334 334 334 333 332 332 331 331 331 332 333 334 333 333 333 333 333 333 332 332 332 332 332 332 331 331 331 331 331 331 331 331 331 331 331 331 331 331 331 331 331 331 331 331 331 331 331 331 331 331 330 330 330 330 330 330 330 330 330 330 329 330 330 330 330 330 330 329 329 329 329 330 330 329 328 328 329 329 330 329 329
333 332 332 333 333 332 332 332 331 331 330 330 330 330 331 331 332 332 333 333 333 333 332 331 331 331 330 330 330 330 330 330 330 330 330 330 330 331 331 331 331 331 330 330 331 331 330 330 330 330 330 329 329 329 329 329 329 329 329 329 329 329 329 329 329 329 330 329 329 329 329 330 329 328 329 330 330 330 328 328 328 329 329 329 329
329 329 330 331 331 330 330 330 330 329 329 328 328 327 327 329 330 330 331 331 332 332 332 331 330 329 329 329 329 329 328 328 329 329 329 329 330 330 331 331 331 330 330 329 330 330 329 329 329 329 328 328 328 328 328 328 328 328 328 327 327 328 329 329 329 329 329 329 329 329 329 329 329 329 329 329 329 329 329 329 329 329 329 329 329
326 327 327 329 329 328 329 329 328 326 324 324 324 324 324 325 327 328 329 329 329 329 330 329 329 328 328 328 328 327 327 327 328 328 328 329 330 330 330 330 330 330 329 329 328 328 327 327 328 328 328 328 328 328 328 328 328 327 327 326 326 326 327 328 328 328 328 329 329 329 329 329 329 329 329 329 328 329 329 329 329 329 328 328 328
Wind_Speed
24 23 22 21 20 19 18 18 17 16 14 13 13 13 13 14 14 14 15 16 16 17 16 17 16 16 16 16 16 17 17 17 17 16 16 15 15 15 14 14 14 13 13 13 12 12 12 13 13 13 13 14 14 14 14 13 13 12 11 10 10 9 7 6 4 4 6 9 10 9 11 13 13 13 13 14 14 13 13 13 14 15 16 16 15
24 23 22 22 20 19 18 18 18 16 15 13 13 12 13 14 13 14 15 16 16 16 16 16 16 16 16 16 16 16 16 16 16 15 15 15 15 15 14 14 14 13 13 13 12 12 12 13 13 13 14 14 15 14 14 13 12 11 10 10 10 10 8 7 6 6 8 9 9 10 13 14 15 15 14 15 15 15 15 16 16 17 17 17 16
21 22 22 22 21 20 19 19 18 17 15 14 13 12 13 14 13 13 14 16 16 16 16 16 16 16 16 16 16 16 16 16 16 16 16 16 16 15 14 14 13 13 12 12 12 12 12 13 13 13 14 15 15 14 14 13 11 10 10 11 10 11 11 11 10 10 10 9 10 13 15 16 16 15 15 16 16 17 17 17 17 18 18 18 17
20 21 22 22 21 21 20 19 18 17 15 14 13 12 13 13 13 13 14 15 16 16 15 16 16 16 17 17 17 16 16 16 17 17 16 16 16 15 14 13 13 13 12 11 11 12 12 13 13 14 14 14 13 13 13 12 11 10 10 11 11 12 13 13 13 12 11 11 14 17 17 17 16 15 16 16 16 17 18 17 17 18 18 17 17
20 22 23 22 22 22 21 20 18 17 16 15 13 13 13 13 13 13 14 15 15 15 15 15 16 16 16 17 16 16 16 16 17 17 17 16 15 14 13 13 12 12 11 11 11 12 13 13 13 13 13 12 12 12 12 12 11 10 10 11 11 12 14 14 13 14 13 13 17 18 18 18 17 16 16 16 16 17 17 17 17 16 16 15 16
21 22 23 23 23 22 22 20 19 17 16 15 14 13 13 12 13 13 13 14 15 15 15 15 16 16 16 16 16 15 16 16 17 17 17 16 15 13 13 12 11 11 11 11 11 12 13 13 12 12 11 10 11 11 12 12 11 10 10 9 10 10 11 11 11 14 13 13 17 18 18 18 17 15 15 15 16 16 16 16 16 15 15 15 15
21 22 22 23 23 23 22 20 19 17 16 15 14 13 12 12 13 13 13 14 15 14 15 15 15 15 15 15 15 15 15 16 16 16 16 15 14 13 12 11 11 10 9 10 10 11 11 11 11 10 10 9 9 11 12 12 11 10 9 8 8 9 9 8 9 13 12 12 17 18 18 17 16 15 14 15 15 15 15 15 14 14 15 15 15
20 21 22 23 23 23 21 20 19 17 16 15 14 12 12 12 13 13 13 14 14 14 14 15 14 14 14 14 14 15 15 15 15 14 14 14 13 12 11 10 9 8 7 7 7 7 8 9 9 8 8 9 10 12 13 12 10 9 8 9 10 9 8 7 10 12 12 12 15 18 17 16 16 16 14 14 14 14 14 13 13 13 13 14 14
21 22 23 23 22 22 21 21 19 17 16 15 14 12 12 12 13 13 13 14 14 14 14 14 14 13 13 14 14 14 14 14 14 13 12 12 12 10 9 9 7 6 5 4 4 4 6 7 8 8 8 10 13 14 13 11 9 8 8 10 11 11 8 8 11 12 12 11 13 16 16 15 15 14 13 12 12 12 12 12 12 13 13 13 13
22 23 23 22 22 21 21 20 19 18 17 15 14 12 11 12 12 13 13 13 13 14 14 14 13 13 13 13 13 13 13 13 13 12 11 10 10 9 8 7 6 5 4 4 4 5 6 7 8 8 8 11 15 14 12 10 8 7 8 11 12 11 10 10 12 12 12 11 11 14 15 14 13 13 11 10 10 10 10 11 11 12 12 12 12
23 24 23 22 21 21 20 20 19 18 17 16 14 12 11 11 12 12 13 13 13 13 13 13 13 12 12 12 12 12 12 12 11 10 9 9 8 8 7 6 5 4 5 5 6 7 8 8 9 10 10 13 16 14 11 9 7 7 9 12 12 11 11 11 11 11 11 10 8 11 13 13 12 11 10 9 8 8 9 10 10 10 10 10 11
24 23 22 22 21 20 20 19 19 18 17 15 13 11 10 11 12 12 13 12 12 12 11 12 12 12 11 11 11 11 11 11 10 8 8 7 7 6 6 5 5 6 6 7 7 8 9 9 10 10 12 14 16 14 11 9 7 6 7 10 11 11 11 11 10 10 10 8 6 7 10 11 11 10 8 6 7 7 8 8 8 8 8 9 9
24 22 22 21 21 20 20 20 19 18 17 15 12 11 10 11 12 12 13 12 11 11 11 11 11 11 11 11 10 10 10 9 8 7 6 6 5 5 5 5 6 7 8 8 8 8 9 10 10 11 14 16 16 14 12 10 7 5 5 8 9 10 10 10 9 9 8 7 5 5 5 8 9 8 6 5 5 6 6 7 7 7 7 8 8
23 22 22 21 21 20 20 20 19 18 16 14 12 11 11 11 12 13 13 12 11 11 10 10 9 9 9 10 10 9 8 8 6 5 5 4 4 4 5 6 7 8 9 8 8 8 9 10 10 12 15 16 16 14 12 9 7 5 4 7 8 9 9 9 9 8 7 5 5 4 4 5 6 5 4 4 4 5 6 6 6 6 6 7 7
21 22 22 22 22 21 20 19 17 16 14 13 11 11 11 12 13 13 13 12 11 11 10 9 9 8 8 9 9 8 7 6 5 4 4 4 4 4 5 6 8 9 9 9 9 8 9 10 10 13 16 16 16 14 11 8 7 6 4 6 8 8 8 8 9 7 6 4 3 2 2 3 3 3 2 3 4 5 5 5 5 6 6 7 8
19 20 21 22 21 21 19 17 16 14 13 12 12 11 11 12 12 13 13 12 11 10 10 9 8 8 7 7 7 7 7 5 5 4 4 4 3 4 5 6 7 8 9 9 9 9 10 9 10 14 16 17 16 13 10 8 7 6 5 6 7 7 7 8 8 7 6 4 2 1 1 1 2 2 2 3 4 5 5 5 5 6 7 7 8
18 18 19 20 20 20 18 17 16 14 14 13 12 11 11 11 12 13 13 12 11 10 9 8 7 7 7 6 6 6 6 6 5 4 4 4 4 4 5 6 7 8 9 10 10 10 10 9 10 14 16 16 15 12 10 8 7 6 5 5 6 6 6 7 7 6 6 4 3 2 2 2 3 3 3 4 5 5 6 6 6 6 7 7 7
18 18 18 18 18 18 17 17 16 15 15 14 13 11 11 11 12 12 12 11 10 9 9 7 6 6 7 7 6 6 6 6 5 4 4 4 4 4 5 5 6 7 8 9 10 10 10 10 11 14 15 15 14 12 10 8 7 6 4 3 4 4 4 5 5 5 5 4 4 4 4 5 5 6 4 4 5 5 6 7 7 7 7 7 6
18 18 18 17 17 17 17 16 16 15 14 13 13 12 11 11 11 12 11 11 10 9 8 7 7 6 7 8 7 7 6 6 6 5 4 4 5 5 5 5 5 6 7 8 9 9 10 10 11 13 14 14 13 12 10 8 7 5 3 2 2 2 2 3 3 3 3 4 4 5 6 6 7 7 6 5 6 6 7 8 7 7 6 6 6
18 18 18 17 16 16 16 15 15 14 13 13 12 12 12 11 11 11 10 10 10 9 8 8 7 7 7 8 8 8 7 6 6 5 4 4 4 5 5 5 5 5 6 7 7 8 9 9 11 13 14 14 13 12 11 9 7 6 4 3 2 1 1 3 3 3 3 4 5 6 6 7 8 8 7 6 7 7 8 9 8 7 7 6 6
18 18 17 17 16 15 15 14 13 13 12 12 12 12 12 12 11 11 10 10 10 9 8 8 8 8 8 8 8 7 6 5 4 4 3 2 3 4 4 4 4 4 4 5 5 6 7 8 10 13 15 15 14 13 12 10 8 6 6 4 3 3 3 3 4 4 4 5 6 7 7 8 9 9 9 8 8 8 9 9 8 7 7 5 6
20 19 17 17 15 15 14 13 13 12 12 11 11 11 11 11 10 10 10 10 9 9 9 9 8 8 8 8 7 6 5 4 3 1 1 0 1 2 3 3 3 3 3 3 3 4 5 6 8 12 15 15 15 15 13 11 9 7 7 7 5 4 4 4 5 5 5 7 7 8 8 9 9 10 10 10 9 9 9 9 8 7 6 5 6
20 19 18 17 15 15 14 13 13 12 11 10 10 10 10 10 10 9 9 9 9 9 9 9 9 8 8 7 7 6 5 4 4 3 2 2 2 1 1 1 2 2 2 2 1 2 2 4 6 10 14 16 17 16 15 13 10 8 8 8 6 4 4 5 6 6 5 7 9 9 10 10 10 10 10 10 10 10 10 10 8 6 6 5 6
20 19 17 17 15 14 14 13 13 12 11 10 9 9 9 9 9 9 8 8 7 8 9 9 9 8 8 6 5 4 3 3 3 3 2 3 4 4 3 2 3 3 3 2 2 1 1 2 4 7 12 16 18 18 17 14 12 9 8 8 7 5 5 6 7 6 6 7 9 10 11 11 10 10 10 10 10 10 11 9 7 6 6 5 5
20 18 17 16 15 14 13 13 12 12 11 9 9 8 8 8 8 7 7 6 5 6 7 8 8 8 7 5 4 3 2 0 1 1 1 2 2 4 4 4 5 5 5 5 4 4 3 3 3 5 9 14 17 18 17 16 13 10 9 8 8 7 7 7 7 7 7 8 9 10 11 11 10 10 10 10 10 10 9 8 7 7 6 5 5
19 18 17 15 15 14 13 13 11 11 10 9 9 8 7 7 6 5 5 4 4 4 5 6 6 6 5 3 3 2 2 3 2 2 2 1 1 2 3 4 6 7 7 7 7 7 6 5 5 5 7 11 15 17 17 16 14 11 10 10 9 9 8 8 7 7 7 8 10 10 11 11 10 10 10 10 10 10 8 7 7 7 6 5 4
18 17 17 15 15 14 13 12 11 11 10 9 8 7 7 6 5 4 4 4 4 4 4 4 5 4 4 4 3 3 3 4 4 4 4 3 3 3 3 5 5 6 8 9 9 9 8 7 7 7 7 9 12 15 15 15 13 11 11 11 11 10 9 9 8 9 8 8 10 11 11 11 11 11 11 11 11 10 8 6 7 6 5 4 3
17 17 16 15 15 13 13 12 11 10 9 8 7 7 6 6 5 4 4 4 4 4 4 3 4 5 5 5 5 5 5 5 6 6 5 5 5 5 5 6 6 6 7 8 10 10 10 10 9 9 10 10 11 12 14 15 13 10 9 10 12 12 11 10 10 11 11 10 11 11 12 12 12 13 12 12 11 9 7 6 7 5 4 4 3
16 17 16 16 15 13 13 12 11 10 9 8 7 7 6 6 5 4 4 4 4 4 5 5 5 6 7 7 7 7 7 8 7 8 7 6 6 7 7 7 7 7 6 7 9 10 10 11 11 11 12 12 12 12 14 15 14 11 9 9 11 12 12 11 12 13 13 12 12 12 12 13 14 14 13 12 10 8 6 6 7 5 4 3 2
16 16 16 16 16 14 13 12 11 10 9 8 7 7 7 6 6 6 5 4 5 5 6 6 6 6 7 8 8 8 8 8 8 9 8 8 8 8 8 8 8 8 7 7 8 10 10 10 11 12 13 14 14 14 14 15 14 13 12 11 11 13 14 13 14 15 16 14 13 13 12 13 14 14 14 12 10 7 6 6 7 5 4 3 3
15 15 16 16 15 14 12 11 11 10 10 8 8 7 7 6 6 6 5 5 6 6 6 6 6 6 7 8 8 8 7 7 7 9 9 9 8 8 8 8 8 9 9 9 8 9 10 11 11 12 13 15 15 15 16 16 16 14 13 12 13 14 16 16 15 15 16 15 14 14 13 13 14 15 14 12 10 7 5 6 7 6 5 4 3
14 15 15 15 14 13 12 11 11 11 9 8 8 7 6 6 6 5 5 6 7 7 6 6 6 6 7 7 7 8 7 7 7 8 9 8 7 7 7 8 9 9 10 10 9 9 10 11 11 12 13 14 15 15 16 17 17 16 15 15 15 17 18 19 17 15 16 17 16 16 16 14 15 16 15 12 10 7 6 6 7 7 6 4 3
12 12 13 13 12 11 11 11 11 10 9 8 7 7 7 6 6 6 6 6 6 6 5 5 5 5 5 6 7 7 7 7 7 8 7 7 6 6 7 7 8 8 9 10 10 11 10 11 12 13 14 14 15 14 15 16 17 18 18 18 18 19 21 22 21 17 17 19 18 18 18 18 17 17 16 13 10 8 7 7 7 7 6 5 5
11 10 10 10 10 10 10 10 10 10 8 8 7 7 7 6 6 6 5 5 5 5 4 4 4 4 5 5 6 6 6 6 7 7 7 7 6 6 6 6 7 8 8 9 11 12 12 12 13 14 14 15 15 15 16 17 17 18 19 21 22 21 22 24 23 21 19 20 19 18 18 18 19 19 17 13 10 8 7 8 8 8 7 7 6
9 9 8 8 9 10 9 9 9 8 8 8 7 7 7 6 5 5 5 4 4 4 4 3 3 4 5 5 5 5 5 6 7 7 8 8 8 8 7 7 7 8 9 10 11 12 13 14 14 15 16 16 16 16 17 18 18 19 20 22 24 23 23 24 26 25 22 21 20 20 19 19 18 18 18 14 11 9 8 8 9 9 9 8 7
8 9 8 8 9 9 8 8 7 7 7 7 7 8 7 6 6 5 5 4 4 4 4 4 4 5 5 6 6 6 5 6 7 7 8 8 9 9 9 9 8 9 10 11 12 13 14 14 15 16 17 17 17 18 18 19 19 19 19 21 24 24 24 25 28 28 26 23 24 24 23 22 19 16 16 15 12 10 8 9 9 10 9 9 8
9 8 8 7 7 8 8 7 7 6 6 6 6 6 6 6 6 5 5 5 5 5 6 6 6 7 7 7 7 8 7 7 7 8 9 9 9 9 9 9 10 10 11 11 12 13 14 15 15 16 17 18 18 19 19 19 19 19 19 20 23 24 24 25 27 29 28 25 25 26 24 23 21 18 16 15 14 12 10 10 10 11 10 10 10
10 9 8 7 6 7 7 7 6 6 6 6 6 5 5 5 5 4 4 5 5 6 7 7 8 8 8 7 8 8 9 8 8 9 11 10 9 9 9 10 11 12 11 11 12 13 15 16 17 17 18 19 19 19 19 18 19 20 20 20 22 24 25 26 26 27 28 26 25 25 24 23 23 22 20 17 15 13 11 11 12 12 12 11 11
11 10 8 8 8 7 7 7 7 7 6 6 5 5 5 5 5 5 5 5 7 8 8 8 9 9 9 8 9 9 10 10 10 11 12 12 10 9 10 12 12 12 12 12 12 12 14 16 18 18 19 20 20 20 20 20 21 22 22 21 23 24 25 26 26 27 26 27 27 26 25 23 23 25 24 21 17 15 13 13 14 13 13 12 12
12 10 9 9 9 8 8 7 7 7 6 6 5 5 7 7 7 6 6 7 7 8 8 9 9 9 9 9 10 11 12 12 11 12 12 11 11 11 12 13 12 11 12 13 12 13 14 16 17 18 19 20 21 21 20 21 22 24 24 23 23 25 26 26 27 28 28 28 28 27 27 26 25 26 25 23 21 18 16 16 16 15 14 14 14
12 11 10 10 9 9 8 8 8 8 7 7 7 8 9 9 8 7 7 8 8 9 9 9 9 9 9 9 10 11 11 11 11 12 12 12 12 12 13 13 12 13 13 13 13 13 14 16 17 18 19 20 21 20 19 20 23 25 26 25 24 25 27 28 28 29 29 29 28 28 28 28 28 27 24 24 24 22 19 18 18 17 15 15 15
14 12 11 11 10 9 9 8 8 8 8 8 9 10 10 10 10 9 8 8 9 10 10 10 10 10 10 9 10 10 10 10 11 12 13 14 14 13 13 13 13 14 14 13 13 14 14 15 17 17 18 19 20 20 19 20 22 24 26 27 26 25 26 28 29 30 30 30 30 30 30 29 29 27 25 27 28 25 21 20 20 19 17 16 16
13 12 12 12 11 10 9 8 7 7 8 8 10 11 11 11 11 10 10 9 9 9 9 10 10 9 9 9 9 8 8 9 10 12 13 14 14 15 15 14 14 15 16 15 15 15 15 15 16 17 17 18 20 21 20 21 21 22 24 25 26 26 27 27 28 29 29 29 30 31 32 31 29 27 28 30 29 25 23 22 22 21 18 18 18
13 11 11 11 10 9 8 8 7 7 7 8 9 11 12 11 11 12 12 12 11 10 9 9 9 8 8 8 8 8 8 9 9 11 12 13 15 16 16 16 16 15 16 16 17 17 16 16 16 17 18 19 21 22 23 22 22 21 20 21 23 23 24 25 26 27 26 26 27 28 30 32 31 29 30 31 30 26 24 24 24 22 20 19 19
14 12 10 9 8 8 7 8 8 7 7 8 10 12 12 12 12 13 13 13 14 13 11 11 10 8 8 8 9 10 10 11 11 12 13 14 16 16 17 17 17 15 16 17 17 18 17 17 18 18 19 20 21 23 24 24 23 22 21 23 22 19 22 24 24 25 25 24 24 24 25 28 31 31 32 32 31 28 26 26 26 24 22 21 21
14 12 11 10 10 9 8 8 8 8 9 10 11 12 13 13 13 14 14 15 15 16 15 14 13 12 12 11 12 12 12 12 12 13 14 15 15 16 17 17 17 16 17 18 18 18 18 18 18 19 19 19 20 23 25 25 24 24 24 26 25 24 27 29 26 25 26 26 25 24 24 24 27 30 32 32 31 30 28 27 28 26 24 22 22
12 12 12 12 11 10 7 7 9 10 11 12 12 13 13 14 15 16 17 18 18 18 18 18 17 15 15 15 16 16 15 13 12 12 12 13 13 14 16 17 16 16 17 18 18 18 18 18 18 18 19 18 19 23 25 25 26 27 26 27 28 29 31 32 31 29 27 26 26 26 25 24 24 27 31 32 31 31 29 28 29 28 26 24 23
12 11 11 11 10 8 7 8 11 13 15 16 17 16 16 16 16 17 16 16 18 20 21 21 20 19 18 19 20 19 18 16 15 14 13 13 13 13 14 15 15 15 16 16 17 18 18 18 19 19 20 20 21 23 25 25 26 28 28 27 29 30 31 32 32 30 29 30 29 27 27 27 26 26 28 31 31 31 30 30 30 30 27 26 25
10 10 10 10 9 7 7 10 13 17 20 21 21 20 19 18 19 19 16 15 16 17 19 21 21 22 22 22 22 21 20 19 18 18 17 17 17 16 16 17 17 17 16 16 16 17 19 20 21 22 22 23 23 24 26 26 26 27 27 27 28 29 30 31 31 30 32 33 32 30 30 29 28 27 28 30 31 32 32 32 32 31 29 28 26
7 7 6 8 8 7 9 12 16 20 23 24 23 21 19 18 19 20 19 17 17 17 18 20 22 23 23 23 23 22 21 21 20 20 20 19 18 18 18 19 20 19 19 18 18 18 20 22 23 23 23 24 25 25 26 28 28 28 27 27 27 28 30 31 31 31 31 32 33 33 31 30 30 30 30 30 31 32 33 34 34 33 31 30 28
4 4 4 5 8 9 12 16 18 17 16 16 17 18 18 17 17 18 19 19 20 20 21 22 23 24 24 24 23 21 21 23 23 22 20 19 19 19 20 20 21 21 21 21 21 22 23 24 25 25 25 26 27 28 29 30 31 31 29 28 28 29 30 31 32 33 33 33 33 34 34 33 33 33 33 30 29 31 33 34 35 34 33 32 30
Wind_Direction
163 160 162 163 164 165 165 163 154 146 138 131 121 117 115 109 105 102 103 106 110 114 116 116 115 113 112 111 108 107 105 106 108 107 104 101 98 98 99 98 98 97 97 97 96 96 96 95 95 97 98 100 101 99 97 93 90 89 86 85 82 81 82 88 95 84 82 95 109 107 95 95 96 94 92 92 92 93 90 91 95 93 93 101 111
164 161 163 163 165 166 167 166 157 148 142 134 125 121 119 114 111 108 110 113 116 117 119 120 120 119 117 115 114 112 110 109 108 107 105 102 101 101 101 100 99 97 98 99 99 98 98 97 97 100 102 104 103 101 99 95 91 89 87 85 80 77 74 79 93 100 100 99 107 108 99 97 96 93 89 89 90 91 92 90 88 87 87 92 99
163 162 163 164 165 167 169 168 160 151 146 138 127 126 123 119 117 114 116 118 120 120 121 123 123 122 120 118 117 116 114 113 110 107 106 106 105 103 102 101 100 98 97 97 100 101 100 99 99 102 106 106 105 104 102 97 95 92 91 89 85 81 78 79 87 97 99 96 106 107 100 97 94 90 88 88 89 90 90 88 85 83 82 83 86
166 164 165 165 167 168 170 170 162 155 149 141 132 131 129 125 123 121 120 121 122 122 123 125 125 123 120 119 118 118 117 115 112 109 108 107 106 104 104 102 102 101 99 99 101 103 102 101 103 107 109 109 108 107 102 99 100 96 92 89 87 83 75 75 79 85 92 98 106 106 101 98 94 90 89 89 87 88 89 86 84 82 80 80 80
168 168 169 167 168 170 171 171 165 158 152 144 137 136 135 132 130 127 124 124 125 124 125 124 125 122 120 120 119 120 119 116 114 112 111 109 108 106 106 105 104 103 102 103 103 104 105 104 107 112 113 112 113 111 106 105 105 98 93 88 87 78 62 64 74 77 86 103 106 104 102 98 96 95 92 91 89 87 87 87 85 83 83 82 80
171 173 172 169 170 171 172 171 166 161 155 147 142 142 141 138 134 132 128 126 128 126 125 124 124 123 123 122 121 122 120 119 117 116 115 113 111 109 109 108 106 105 105 106 108 108 109 108 112 118 118 118 120 118 115 114 112 106 102 97 95 87 69 63 71 75 85 105 107 103 102 99 98 99 95 92 90 87 86 88 89 89 87 82 78
174 175 173 171 171 171 171 170 167 164 158 151 146 147 146 144 139 136 133 130 131 129 126 126 126 126 125 124 124 124 123 122 121 120 119 118 116 114 113 111 109 109 110 109 110 113 114 114 118 129 131 131 131 125 118 117 116 114 114 116 116 113 103 86 74 76 84 102 109 105 103 102 100 98 91 88 91 93 92 91 90 86 83 79 75
175 176 173 171 172 171 169 169 168 165 161 155 151 151 150 148 144 140 138 135 134 133 129 128 129 129 128 128 129 128 128 126 124 123 121 121 120 120 120 116 115 115 114 112 114 120 126 125 127 143 151 148 139 128 119 117 116 114 118 122 119 112 107 92 75 75 84 99 109 107 103 100 96 94 92 92 93 93 93 90 87 81 76 74 73
175 173 171 171 172 169 168 168 167 166 164 160 157 156 155 153 148 144 144 141 139 136 133 132 132 133 133 132 133 132 131 129 128 127 126 126 125 125 123 119 116 114 112 113 120 129 143 144 140 148 158 154 143 132 123 121 118 117 121 118 113 107 101 87 75 75 86 99 109 107 103 97 93 93 93 93 90 86 83 81 83 79 72 69 67
173 169 169 170 171 168 167 167 166 167 167 165 162 161 159 156 151 147 148 147 143 141 139 137 136 136 136 135 136 135 133 133 134 135 134 131 129 128 124 120 115 112 109 109 118 127 143 149 143 142 153 154 144 135 128 127 124 127 125 116 111 106 98 86 78 80 88 95 107 110 106 104 101 99 97 95 93 91 84 77 76 74 69 68 66
170 167 167 168 168 166 165 166 167 168 169 169 167 165 162 158 153 151 151 151 147 144 144 142 140 138 137 138 139 140 139 140 142 143 142 139 136 132 126 122 119 116 113 112 116 125 137 143 137 139 151 151 143 137 132 130 130 130 122 112 104 97 90 82 81 85 89 88 101 114 114 113 109 106 104 102 97 91 83 80 76 73 69 69 68
165 164 164 167 165 163 164 166 168 170 172 172 171 167 163 160 157 156 156 154 149 147 147 145 146 145 141 140 141 144 145 146 149 150 150 148 147 140 130 123 122 118 112 112 117 127 137 136 134 141 149 147 143 139 135 135 135 134 118 105 97 92 86 80 81 85 87 84 90 110 117 119 114 109 104 95 88 81 75 75 74 71 63 58 60
162 162 164 166 163 162 165 166 169 172 174 173 172 170 166 164 161 162 162 155 149 149 151 151 152 150 147 145 142 145 149 151 153 154 154 154 152 146 132 123 121 116 110 111 119 130 136 132 134 144 148 146 144 140 139 140 142 146 121 103 97 93 87 81 81 83 83 82 86 91 100 107 106 103 97 82 70 66 61 59 60 57 49 46 51
160 162 163 163 161 162 166 167 171 171 172 173 173 173 169 166 165 167 166 158 152 152 153 156 154 149 150 149 146 147 149 151 154 152 148 147 147 141 129 123 120 115 111 113 122 131 133 132 135 146 150 147 143 142 145 148 154 163 138 108 99 90 85 82 81 78 75 75 86 87 73 76 84 85 79 64 45 39 38 36 36 35 32 34 40
161 162 163 162 161 162 165 167 169 169 170 173 176 176 170 166 167 171 170 163 157 154 154 158 156 151 148 145 147 148 148 152 156 149 135 131 130 126 120 121 120 115 114 117 125 131 133 132 136 147 150 146 144 148 152 157 167 173 153 115 98 88 83 81 78 72 67 68 81 97 78 56 66 61 37 36 29 17 17 12 13 20 13 21 30
161 163 165 164 163 163 164 165 165 167 170 175 178 175 170 167 168 173 173 167 160 156 156 158 158 153 142 138 146 149 150 158 161 151 133 127 120 116 116 121 121 118 118 120 125 132 134 132 136 148 150 148 148 153 157 164 175 176 158 118 97 88 85 81 74 67 62 59 50 48 36 14 15 4 351 1 6 360 357 352 359 5 358 13 23
161 165 167 166 165 163 163 164 164 166 171 174 176 174 170 168 170 174 174 170 163 159 159 161 161 151 140 140 148 150 154 161 165 159 144 138 128 119 119 124 124 121 120 120 125 132 135 133 138 150 152 151 153 155 161 173 184 179 157 117 99 93 88 81 73 64 56 44 26 8 351 345 338 330 320 332 343 342 340 339 343 350 354 6 16
161 165 166 166 164 162 163 162 165 167 171 173 173 172 171 171 172 174 174 170 165 163 163 165 163 153 150 153 156 158 160 165 171 172 161 149 139 129 125 126 124 123 124 123 126 133 135 136 142 152 155 156 157 160 168 185 196 188 165 133 113 107 97 85 74 65 53 36 17 358 345 342 338 332 321 321 330 327 327 333 337 346 357 2 10
161 164 163 164 162 161 161 162 165 166 169 171 172 172 172 173 171 172 173 169 166 167 167 168 169 166 165 163 164 169 171 174 179 184 177 158 141 132 128 126 123 124 128 126 127 132 136 140 148 156 161 162 163 167 175 192 207 211 197 177 152 120 96 75 66 63 48 25 6 350 341 337 334 333 325 316 319 320 324 332 338 347 356 354 360
161 164 162 163 161 158 159 160 162 163 168 171 173 175 172 172 170 171 172 169 170 172 171 173 178 178 179 173 170 175 180 181 184 195 190 162 142 134 132 129 127 126 130 132 129 132 135 141 155 163 167 169 170 172 178 196 215 229 235 227 230 280 357 20 26 28 20 8 356 346 339 334 330 329 326 319 317 323 331 336 341 345 348 345 350
162 164 163 162 158 156 157 158 158 160 167 171 175 176 173 170 170 171 171 173 174 176 179 180 184 184 185 180 172 174 179 180 185 198 198 163 143 139 138 133 133 129 128 130 131 136 138 142 158 169 174 175 176 177 180 200 219 230 244 246 252 284 318 349 359 353 354 355 352 346 339 336 332 329 327 327 325 329 337 339 340 338 339 339 341
164 165 163 162 159 159 157 156 156 159 164 167 173 174 174 171 171 174 174 179 179 182 186 185 189 188 184 176 165 162 158 155 154 170 237 198 137 147 147 142 146 138 129 125 125 136 143 144 156 173 180 181 181 180 183 201 217 227 242 248 254 276 302 325 340 340 345 347 347 345 338 335 335 333 330 332 332 336 342 338 333 328 329 334 337
166 166 165 164 163 161 157 157 157 159 160 163 169 171 173 172 172 176 179 184 187 189 189 189 193 190 183 174 165 158 147 130 108 81 29 3 8 8 180 183 188 178 169 161 141 134 151 154 154 172 184 187 187 185 184 197 214 223 240 251 258 272 287 303 320 330 341 342 342 341 336 331 330 334 332 332 335 338 341 334 326 320 321 328 333
167 167 168 167 165 163 160 161 160 160 160 163 168 169 170 170 172 173 180 185 186 187 189 194 194 187 180 177 180 176 159 120 95 75 50 27 10 357 340 306 266 245 234 231 222 194 184 187 168 171 185 191 192 190 188 195 208 219 238 256 264 272 278 289 304 315 333 339 337 338 336 332 327 329 331 330 333 334 336 331 321 317 319 325 327
167 168 170 169 166 165 166 164 163 164 164 167 170 172 172 171 170 169 178 181 175 178 186 195 191 184 184 192 212 221 234 35 58 41 39 51 27 357 339 324 303 283 265 254 247 233 222 224 209 184 186 195 197 197 195 197 205 216 236 257 268 272 278 289 301 306 324 337 335 336 337 335 327 323 325 327 329 329 332 327 318 318 317 317 319
169 170 171 170 167 168 170 167 167 168 168 173 177 180 179 177 176 172 179 183 184 184 185 196 194 188 203 225 232 240 265 296 316 318 329 343 360 337 324 319 310 302 288 271 258 246 233 225 225 213 191 194 200 203 203 201 204 215 234 252 261 269 280 290 300 300 313 327 328 332 335 335 330 324 323 323 323 324 327 320 313 314 310 310 312
170 171 170 170 171 173 173 171 172 175 175 180 187 188 186 186 189 186 188 196 203 204 188 196 206 209 236 256 257 265 276 291 297 301 304 299 300 302 315 315 302 298 297 287 272 258 245 233 226 225 209 193 196 203 206 204 205 215 233 248 253 259 273 284 294 295 300 311 315 320 324 328 329 329 326 321 319 321 322 314 311 308 296 300 303
170 169 170 171 173 178 177 177 177 179 181 185 194 194 193 195 198 200 200 208 213 214 204 211 231 238 253 258 265 275 276 282 287 292 292 293 295 292 303 309 301 288 288 292 286 274 257 244 234 230 223 208 197 200 205 207 210 218 228 242 252 257 265 277 289 293 296 300 303 307 311 313 318 323 326 323 318 318 317 306 305 301 279 281 284
170 169 173 175 175 179 178 179 177 181 185 188 197 197 201 204 207 211 207 215 219 227 233 245 255 253 257 255 263 271 270 275 280 285 286 291 294 288 292 300 303 291 280 284 286 285 272 253 242 235 232 225 214 209 212 213 218 227 229 237 251 258 262 270 283 290 293 295 295 296 299 302 307 313 319 324 321 314 312 297 296 294 268 261 255
170 170 176 178 177 178 177 176 175 181 187 193 201 200 204 209 215 218 215 222 229 243 247 255 267 267 266 259 263 269 271 274 276 282 287 295 296 291 293 297 301 297 287 281 278 281 276 264 252 242 239 236 230 225 224 225 228 234 234 237 248 258 262 268 278 286 289 289 288 287 289 294 300 307 312 322 322 310 303 288 286 286 268 250 233
169 172 177 179 178 177 173 172 175 183 190 197 201 196 198 205 215 222 222 228 239 251 254 263 276 285 281 269 269 274 279 282 282 284 289 294 296 296 298 302 307 306 299 289 280 276 272 269 261 251 245 242 240 236 236 236 237 240 242 245 249 255 260 267 276 283 287 284 282 282 282 286 294 301 308 318 319 304 292 280 276 275 268 256 232
172 175 177 179 179 177 173 173 179 184 189 193 193 191 195 204 213 220 218 222 236 248 254 267 278 285 283 277 280 283 288 291 288 285 286 291 294 298 300 306 311 308 304 296 286 278 271 269 264 259 255 253 252 247 247 246 244 245 248 255 259 260 259 261 268 276 281 281 280 281 281 283 288 296 302 310 313 297 281 270 266 263 257 254 244
175 174 174 177 179 180 177 179 181 182 184 187 191 192 196 205 213 221 224 225 235 246 255 267 274 280 281 284 290 293 296 294 289 284 284 291 296 302 304 310 311 304 301 296 288 281 272 268 265 261 260 261 262 259 259 257 253 251 252 261 269 269 262 256 257 260 268 273 274 277 280 282 284 290 294 298 299 289 278 267 261 254 244 243 247
173 170 171 174 179 183 181 182 179 176 177 183 192 193 196 203 211 228 240 245 247 247 254 264 272 281 283 291 298 300 302 297 294 291 291 299 306 312 316 315 310 302 295 288 282 278 271 267 264 263 263 264 265 265 267 267 266 262 261 267 272 271 266 259 255 253 256 263 265 267 273 278 280 284 285 286 286 279 270 264 259 252 242 239 242
168 163 164 165 172 176 175 177 173 173 176 179 185 186 193 201 213 233 245 256 259 256 265 276 281 282 281 287 291 295 302 301 300 300 302 309 313 319 324 320 312 304 295 286 279 275 273 271 270 270 270 271 272 273 273 274 274 271 270 272 273 273 268 260 255 253 253 255 258 261 268 273 273 277 279 276 275 272 262 257 254 248 245 243 240
159 155 156 157 161 162 162 169 172 177 181 180 181 178 183 193 207 223 233 245 258 274 282 291 298 290 283 281 282 287 292 295 297 300 306 312 318 322 324 321 314 305 297 291 288 284 283 281 281 281 280 280 280 281 281 281 280 278 276 274 273 275 271 261 253 253 254 254 257 260 267 273 269 267 272 272 269 264 256 252 251 247 247 245 240
157 158 158 162 161 157 159 167 178 190 190 189 190 183 182 190 201 212 222 237 255 282 290 296 306 298 289 282 280 283 282 290 300 309 315 317 320 322 319 313 304 298 294 293 293 291 290 288 287 287 286 286 285 286 286 285 284 282 281 278 274 273 272 266 257 253 253 254 259 260 264 271 268 259 259 263 263 260 254 248 249 249 250 246 241
158 163 167 169 163 159 169 181 195 203 198 198 202 202 202 206 217 225 238 253 266 286 296 299 303 297 291 287 287 289 288 296 304 310 317 316 315 317 315 308 300 299 298 296 296 293 292 292 290 290 288 288 288 288 287 285 283 282 281 279 276 272 270 271 267 259 253 254 260 261 260 261 264 261 256 253 251 251 251 247 246 247 248 245 241
158 166 170 166 163 167 182 194 205 209 209 217 220 224 236 239 244 254 263 273 279 288 297 301 303 298 290 288 291 295 298 301 301 303 308 310 312 316 313 306 304 306 306 304 301 294 291 289 289 290 289 289 289 290 290 289 286 283 282 279 277 274 271 271 272 269 263 260 260 259 257 254 257 261 257 250 245 243 244 244 244 246 249 245 242
160 169 170 168 169 176 186 192 201 209 217 230 243 248 253 258 262 271 277 283 287 289 294 300 306 303 294 292 291 293 297 297 296 296 300 307 310 309 306 306 306 306 307 308 306 301 295 290 289 289 289 289 289 290 292 292 289 286 284 282 279 277 275 272 270 269 267 265 261 258 257 254 255 257 253 249 247 244 240 240 242 244 248 245 241
159 170 176 172 172 180 189 193 202 215 223 230 243 249 255 263 266 267 269 276 282 282 284 289 296 296 293 293 290 291 292 290 289 291 296 305 307 305 306 307 306 303 303 307 307 304 299 294 292 291 291 291 289 290 292 291 290 289 287 287 283 278 276 275 272 270 268 266 263 259 257 254 255 256 254 251 251 247 239 237 240 241 245 244 240
156 166 173 171 174 181 189 196 207 221 230 238 245 252 259 263 264 266 269 274 280 281 281 283 287 289 290 289 290 292 292 290 291 294 299 304 306 310 311 310 306 303 303 306 305 303 299 296 295 293 293 293 291 291 291 292 291 292 294 293 288 284 279 276 273 271 268 267 266 263 260 256 254 253 253 251 249 246 241 236 236 239 243 243 238
161 166 173 174 176 179 185 192 201 213 226 240 248 257 261 262 268 274 282 287 288 291 293 293 293 297 299 298 299 301 300 298 297 298 300 302 306 310 312 311 309 305 301 300 300 301 302 301 299 296 296 295 294 292 292 293 290 292 295 292 291 291 288 283 277 273 271 269 268 266 264 260 257 252 250 249 245 240 239 237 235 236 242 243 239
170 176 185 189 189 190 194 199 211 221 231 247 256 262 263 264 270 273 282 287 288 293 296 296 298 307 312 310 311 313 311 306 300 299 300 300 303 306 309 309 308 305 300 298 298 299 301 301 299 298 297 296 295 296 295 294 291 291 290 288 290 289 285 285 285 282 278 273 269 266 264 262 259 254 250 251 248 239 236 237 236 235 238 242 241
171 174 184 203 216 222 224 226 239 246 250 263 267 270 270 268 269 269 274 279 280 280 277 274 279 290 299 305 315 321 321 314 305 300 296 295 299 303 306 305 304 303 300 300 301 301 302 300 300 299 297 297 298 298 296 295 293 289 283 282 283 280 279 286 290 288 284 278 274 270 265 261 258 254 252 252 249 240 234 236 236 234 235 240 243
169 171 182 206 226 237 243 252 266 272 272 275 278 282 283 283 280 276 274 277 280 280 278 278 282 290 295 299 308 315 321 323 319 311 301 297 297 299 299 299 300 300 300 302 304 305 305 304 303 301 299 299 299 297 295 295 293 288 282 280 279 278 280 283 284 284 284 281 277 272 267 262 257 254 252 250 246 240 236 236 234 232 233 237 242
180 180 190 207 217 227 239 259 275 282 286 287 287 286 287 289 289 287 285 285 285 285 285 287 290 294 297 298 299 301 305 310 316 318 312 304 300 297 296 296 296 296 298 302 304 305 304 303 303 300 298 296 295 294 293 295 296 293 290 287 283 281 280 280 279 281 281 278 275 272 270 266 259 254 251 248 244 241 240 237 233 231 232 235 239
190 189 195 207 209 216 235 262 275 284 291 290 287 283 281 283 283 284 287 284 283 284 284 286 287 286 288 291 294 296 299 299 300 303 304 303 300 297 295 296 297 296 297 301 302 302 301 301 299 295 295 293 291 291 293 296 297 296 296 294 290 286 284 283 283 280 276 273 271 269 268 267 260 253 250 247 244 241 240 236 233 232 232 234 238
187 189 195 204 213 226 245 262 274 283 287 286 285 281 277 276 273 273 274 275 276 277 279 281 281 281 284 287 288 292 295 296 296 295 295 295 295 295 294 294 296 297 297 299 300 300 300 299 298 296 295 294 293 293 293 295 295 295 296 295 295 293 290 287 285 282 275 270 267 265 266 265 259 251 247 244 244 243 239 235 233 233 233 234 236
184 193 203 217 236 256 263 268 275 280 282 280 279 277 273 269 266 264 264 267 269 269 272 274 275 278 281 283 287 290 292 292 292 292 292 292 291 292 291 291 292 293 293 294 295 298 298 297 298 298 298 299 299 297 295 294 293 293 293 293 294 294 292 287 283 280 276 271 268 266 265 262 259 256 250 246 244 242 238 235 232 232 234 234 235
177 202 224 248 267 280 281 280 280 281 283 281 275 271 268 265 261 259 259 262 264 265 267 269 271 272 273 276 280 282 285 288 289 289 288 287 286 286 287 288 289 290 291 291 293 295 296 296 298 299 300 299 298 297 295 295 295 295 294 293 291 290 290 286 283 279 275 273 269 265 264 261 259 259 258 255 249 241 238 236 233 232 234 234 234